Workout of the Day

« September 5, 2024 »

1/2/3/4/5 minutes with 2 minutes rest

Intervals of 1 minute, 2 minutes, 3 minutes, 4 minutes, 5 minutes. 2 minutes rest between each interval.

Pos. Name Age Country Result Pace
1049 Matt Roseland 45 USA 3,495 2:08.7
1052 Matt Squire 40 USA 3,494 2:08.7
1053 Vincent Campanile 33 USA 3,493 2:08.8
1054 Chad McEvoy - USA 3,492 2:08.8
1054 Jurrian Elekan 42 NED 3,492 2:08.8
1054 Devin Hirning - USA 3,492 2:08.8
1057 Alexia Taylor 46 GBR 3,491 2:08.9
1058 Greg Metcalfe 49 USA 3,490 2:08.9
1058 Jeff LaPoint 57 USA 3,490 2:08.9
1060 Damon Devine 49 USA 3,489 2:08.9
1060 Ross Lambert 41 USA 3,489 2:08.9
1060 Ian Barnes 55 GBR 3,489 2:08.9
1063 yi huang 45 CHN 3,487 2:09.0
1063 Jake Flancer 25 USA 3,487 2:09.0
1063 Larisa Gray 30 USA 3,487 2:09.0
1063 Daniel Parks 34 USA 3,487 2:09.0
1067 Kin Cheung Ma 32 CAN 3,486 2:09.0
1068 Joose Orpana 42 FIN 3,485 2:09.1
1068 Andy Boldt 54 CAN 3,485 2:09.1
1070 Ben Templeman 43 AUS 3,484 2:09.1
1070 Jim Weir 61 GBR 3,484 2:09.1
1070 Mark Kent 50 USA 3,484 2:09.1
1070 Jeffrey Bell 62 USA 3,484 2:09.1
1074 Henry Schairer 55 USA 3,483 2:09.1
1074 Xosé Manuel Calvo Suárez 45 ESP 3,483 2:09.1
1076 Lars Holmström 55 SWE 3,482 2:09.2
1077 Roger Dix 68 GBR 3,481 2:09.2
1077 Ademar Cunha Dangone 45 USA 3,481 2:09.2
1079 jay zhu 37 CHN 3,480 2:09.3
1079 Mino Lee 37 KOR 3,480 2:09.3
1079 Dale Boughton 51 USA 3,480 2:09.3
1079 Tilo Rimsberger Wieland 31 GER 3,480 2:09.3
1079 Andrew Simmons 63 GBR 3,480 2:09.3
1084 Shawn Lauer 49 USA 3,479 2:09.3
1084 MICHAEL REEVES 52 USA 3,479 2:09.3
1086 Jessica Hughes 37 USA 3,477 2:09.4
1086 Bob Wallace 66 USA 3,477 2:09.4
1088 John Weil 73 USA 3,476 2:09.4
1088 Jessie Ysalina 54 USA 3,476 2:09.4
1090 상민 한 44 KOR 3,475 2:09.4
1090 Anne Goffin 43 USA 3,475 2:09.4
1090 Victoria Malcolm 40 GBR 3,475 2:09.4
1093 Tanner Cox 32 USA 3,474 2:09.5
1093 DAVID HIGHTOWER 59 USA 3,474 2:09.5
1095 Craig Hissong 54 USA 3,473 2:09.5
1095 Sarah Br 59 GBR 3,473 2:09.5
1095 Nathan Brown 46 USA 3,473 2:09.5
1095 Paul Woods 64 USA 3,473 2:09.5
1095 Joshua Bush 52 USA 3,473 2:09.5
1100 Randy Brown 61 USA 3,472 2:09.6